TimeCST,TemperatureF,Dew PointF,Humidity,Sea Level PressureIn,VisibilityMPH,Wind Direction,Wind SpeedMPH,Gust SpeedMPH,PrecipitationIn,Events,Conditions,WindDirDegrees,DateUTC
12:52 AM,19.0,10.0,68,30.08,10.0,South,6.9,-,N/A,,Clear,180,2012-12-11 06:52:00
1:52 AM,19.0,9.0,65,30.08,10.0,South,8.1,-,N/A,,Clear,190,2012-12-11 07:52:00
2:52 AM,19.9,9.0,62,30.09,10.0,SSW,8.1,-,N/A,,Clear,200,2012-12-11 08:52:00
3:52 AM,19.9,9.0,62,30.09,10.0,SSW,9.2,-,N/A,,Clear,200,2012-12-11 09:52:00
4:52 AM,19.9,9.0,62,30.08,10.0,South,8.1,-,N/A,,Clear,190,2012-12-11 10:52:00
5:52 AM,19.9,8.1,60,30.09,10.0,SSW,4.6,-,N/A,,Clear,210,2012-12-11 11:52:00
6:52 AM,18.0,8.1,65,30.11,10.0,South,5.8,-,N/A,,Clear,190,2012-12-11 12:52:00
7:52 AM,18.0,9.0,68,30.12,10.0,SSW,4.6,-,N/A,,Clear,200,2012-12-11 13:52:00
8:52 AM,24.1,12.0,60,30.14,10.0,SSW,5.8,-,N/A,,Clear,210,2012-12-11 14:52:00
9:52 AM,27.0,10.9,51,30.17,10.0,West,3.5,-,N/A,,Clear,260,2012-12-11 15:52:00
10:52 AM,33.1,10.9,40,30.17,10.0,WNW,3.5,-,N/A,,Clear,300,2012-12-11 16:52:00
11:52 AM,37.0,12.0,36,30.16,10.0,Calm,Calm,-,N/A,,Clear,0,2012-12-11 17:52:00
12:52 PM,39.9,14.0,35,30.13,10.0,SSE,3.5,-,N/A,,Clear,150,2012-12-11 18:52:00
1:52 PM,43.0,14.0,31,30.13,10.0,Calm,Calm,-,N/A,,Clear,0,2012-12-11 19:52:00
2:52 PM,44.1,15.1,31,30.11,10.0,Calm,Calm,-,N/A,,Clear,0,2012-12-11 20:52:00
3:52 PM,44.1,16.0,32,30.12,10.0,SSE,5.8,-,N/A,,Clear,160,2012-12-11 21:52:00
4:52 PM,37.9,17.1,43,30.13,10.0,South,6.9,-,N/A,,Clear,180,2012-12-11 22:52:00
5:52 PM,32.0,16.0,52,30.15,10.0,South,6.9,-,N/A,,Clear,180,2012-12-11 23:52:00
6:52 PM,27.0,15.1,61,30.16,10.0,South,5.8,-,N/A,,Clear,180,2012-12-12 00:52:00
7:52 PM,24.1,16.0,71,30.17,10.0,SSE,6.9,-,N/A,,Clear,150,2012-12-12 01:52:00
8:52 PM,27.0,15.1,61,30.17,10.0,SE,5.8,-,N/A,,Clear,130,2012-12-12 02:52:00
9:52 PM,26.1,16.0,66,30.18,10.0,SE,5.8,-,N/A,,Clear,140,2012-12-12 03:52:00
10:52 PM,26.1,16.0,66,30.19,10.0,SSE,8.1,-,N/A,,Clear,160,2012-12-12 04:52:00
11:52 PM,28.0,17.1,63,30.19,10.0,South,9.2,-,N/A,,Clear,190,2012-12-12 05:52:00